Weather in Ryumino-Krasnoyarskiy

Russia / Volgograd Oblast     48°48′35″N   43°35′31″E
temp.,
°C
wind,
m/s
gust,
m/s
humid.,
%
clouds,
%
prec.,
mm/h
press.,
hPa
HPBL,
m
25 july, sun
sun2500:00+24nne46397 0.0 1014172
03:00+20ne34545 0.0 101571
06:00+21ne24555 0.0 1016144
09:00+26ene33375 0.0 10171000
12:00+29ne223076 0.0 10172793
15:00+30ne222979 0.0 10172455
18:00+29nnw333041 0.0 10171299
21:00+24ne5104157 0.0 1019270
26 july, mon
mon2600:00+21ne4104523 0.0 1020250
03:00+21ne410432 0.0 1020222
06:00+21ene59432 0.0 1021262
09:00+28ene66303 0.0 1021848
12:00+31e55252 0.0 10202231
15:00+31ese432488 0.0 10192768
18:00+30ene5527100 0.0 10191516
21:00+26e593370 0.0 1020332
27 july, tue
tue2700:00+24ene61035100 0.0 1021406
03:00+20ne484284 0.0 1021168
06:00+20ne474380 0.0 1021195
09:00+27e442776 0.0 1021868
12:00+30ene322454 0.0 10202644
15:00+30ne232479 0.0 10182988
18:00+29ne442576 0.0 10181341
21:00+26e352887 0.0 1019160
28 july, wed
wed2800:00+22ne3337100 0.0 102039
03:00+20ne33461 0.0 101930
06:00+21ne25460 0.0 1019128
09:00+27ne34290 0.0 10191703
12:00+30ne33244 0.0 10182971
15:00+31nne23217 0.0 10163263
18:00+31n122290 0.0 10163136
21:00+27sse232787 0.0 101662
29 july, thu
thu2900:00+24ssw333335 0.0 101535
03:00+22sw113774 0.0 101511
06:00+23sw2436100 0.0 101495
09:00+30sw572583 0.0 10141021
12:00+32sw662267 0.0 10132829
15:00+32ssw782292 0.0 10112736
18:00+29sw482789 0.1 1011351
21:00+25sw493780 0.4 1011126